1,427,577개(3116/71379페이지)
LECTURE
번호 제목 글쓴이 조회 날짜
1365277 Information Entryway Services Online EngelKofod7703 6 2022.04.22 18:03
1365276 Information Entryway Services Online EngelKofod7703 6 2022.04.22 18:03
1365275 Playing Multiple Tables - A Winning Poke SchneiderKlausen3171 4 2022.04.22 18:03
1365274 Tempat Judi Online Terbaik Dengan Hadiah 사진 DunnHenderson9473 5 2022.04.22 18:03
1365273 The very best Sports Betting Internet si GlerupVedel3302 4 2022.04.22 18:03
1365272 Spirituality At Work, Because You Can't BirchMcCurdy7138 3 2022.04.22 18:03
1365271 บาคาร่า เกมไพ่ที่ได้รับความนิยมที่ในชีวิ IbsenLogan9495 5 2022.04.22 18:03
1365270 Coping With Debt NorrisHolder3213 3 2022.04.22 18:03
1365269 agen slots online sah dengan dukungan pr 사진 HelmsHumphries3273 2 2022.04.22 18:03
1365268 Resep Bermain Poker Uang Asli Rupiah Di HowellMcCullough3784 5 2022.04.22 18:03
1365267 OTT Platforms' Marketing Strategy CamposAvila0623 3 2022.04.22 18:02
1365266 A new Population Pharmacokinetic Meta-An FriisDrew6177 2 2022.04.22 18:02
1365265 Time administration can help you get a g AguilarKold8012 3 2022.04.22 18:02
1365264 The rewards of finding out strong time m MeldgaardKofod8132 3 2022.04.22 18:02
1365263 Permainan Di Situs Judi Permainan Poker ToppGleason8130 3 2022.04.22 18:02
1365262 Permainan Di Situs Judi Permainan Poker ToppGleason8130 3 2022.04.22 18:02
1365261 How Does The Construction Project Manage NashPerry4928 3 2022.04.22 18:02
1365260 Whole Foods Uk PetterssonSnyder9895 3 2022.04.22 18:02
1365259 daftar slot online terbaru 2022 | slot o [1] KleinCarroll2798 3 2022.04.22 18:02
1365258 Is everything safe when you are into onl [2] SellersBlaabjerg4700 4 2022.04.22 18:02